FW0891 Weather Reports


time (UTC)temp
C
wind
direction
speed
KPH
gust
KPH
rain 1hr
cm
rain 24hr
cm
rain mn
cm
humidity
%
barometer
mb
20260506160504 26 255 6.4 0.0 0.00 0.00 0.05 79 1010.3
20260506160004 26 196 6.4 0.0 0.00 0.00 0.05 78 1010.1
20260506155503 26 201 6.4 0.0 0.00 0.00 0.05 78 1009.8
20260506154504 26 164 9.7 0.0 0.00 0.00 0.05 79 1009.4
20260506153503 26 163 11.3 0.0 0.00 0.00 0.05 80 1009.4
20260506153003 25 153 11.3 0.0 0.00 0.00 0.05 81 1009.5
20260506152503 26 143 12.9 0.0 0.00 0.00 0.05 80 1009.6
20260506152004 26 172 9.7 0.0 0.00 0.00 0.05 81 1009.6
20260506151503 26 169 9.7 0.0 0.00 0.00 0.05 81 1009.6
20260506151003 26 150 9.7 0.0 0.00 0.00 0.05 81 1009.4
20260506150504 26 158 11.3 0.0 0.00 0.00 0.05 81 1009.3
20260506145503 25 178 11.3 0.0 0.00 0.00 0.05 82 1009.4
20260506145003 25 137 9.7 0.0 0.00 0.00 0.05 83 1009.5
20260506144503 25 153 11.3 0.0 0.00 0.00 0.05 83 1009.6
20260506144004 25 170 9.7 0.0 0.00 0.00 0.05 83 1009.6
20260506143504 25 160 9.7 0.0 0.00 0.00 0.05 83 1009.6
20260506143003 25 113 8.0 0.0 0.00 0.00 0.05 84 1009.5
20260506142504 25 127 11.3 0.0 0.00 0.00 0.05 85 1009.3
20260506142003 25 151 11.3 0.0 0.00 0.00 0.05 85 1009.1
20260506141503 25 119 11.3 0.0 0.00 0.00 0.05 85 1008.9
20260506140503 25 143 12.9 0.0 0.00 0.00 0.05 86 1008.8
20260506140004 25 138 9.7 0.0 0.00 0.00 0.05 86 1008.9
20260506134504 25 133 11.3 0.0 0.00 0.00 0.05 87 1008.8
20260506133504 25 132 9.7 0.0 0.00 0.00 0.05 88 1008.7
20260506132504 25 119 11.3 0.0 0.00 0.00 0.05 89 1008.6
20260506132003 24 120 6.4 0.0 0.00 0.00 0.05 90 1008.7
20260506131504 24 98 6.4 0.0 0.00 0.00 0.05 90 1008.7
20260506131004 24 132 0.0 0.0 0.00 0.00 0.05 89 1008.8
20260506130504 24 122 0.0 0.0 0.00 0.00 0.05 89 1008.8
20260506125003 23 110 4.8 0.0 0.05 0.00 0.05 89 1008.6
20260506124003 23 122 0.0 0.0 0.05 0.00 0.05 89 1008.6
20260506123504 23 135 0.0 0.0 0.05 0.00 0.05 89 1008.6
20260506123004 23 136 0.0 0.0 0.05 0.00 0.05 89 1008.5
20260506122503 23 115 0.0 0.0 0.05 0.00 0.05 88 1008.5
20260506122004 23 117 0.0 0.0 0.00 0.00 0.00 88 1008.6
20260506121503 23 110 3.2 0.0 0.00 0.00 0.00 88 1008.5
20260506121004 23 108 4.8 0.0 0.00 0.00 0.00 88 1008.5
20260506120504 23 103 0.0 0.0 0.00 0.00 0.00 88 1008.6
20260506120004 23 128 0.0 0.0 0.00 0.00 0.00 88 1008.5
20260506115503 23 156 0.0 0.0 0.00 0.00 0.00 87 1008.5
20260506114503 23 169 4.8 0.0 0.00 0.00 0.00 87 1008.4
20260506114003 23 180 3.2 0.0 0.00 0.00 0.00 87 1008.4
20260506113503 23 193 6.4 0.0 0.00 0.00 0.00 87 1008.3
20260506113004 23 184 6.4 0.0 0.00 0.00 0.00 87 1008.2
20260506112004 23 179 6.4 0.0 0.00 0.00 0.00 87 1008.1
20260506111003 23 172 8.0 0.0 0.00 0.00 0.00 87 1008.2
20260506110503 23 171 8.0 0.0 0.00 0.00 0.00 87 1008.1
20260506110004 23 157 8.0 0.0 0.00 0.00 0.00 87 1008.0
20260506105504 24 156 8.0 0.0 0.00 0.00 0.00 87 1008.0
20260506104503 24 168 8.0 0.0 0.00 0.00 0.00 87 1007.8
20260506104005 24 158 9.7 0.0 0.00 0.00 0.00 87 1007.7
20260506103503 23 164 8.0 0.0 0.00 0.00 0.00 87 1007.7
20260506103003 23 159 6.4 0.0 0.00 0.00 0.00 87 1007.7
20260506102504 23 161 0.0 0.0 0.00 0.00 0.00 87 1007.7
20260506102004 23 164 0.0 0.0 0.00 0.00 0.00 87 1007.7
20260506101003 24 151 6.4 0.0 0.00 0.00 0.00 87 1007.4
20260506100504 24 157 4.8 0.0 0.00 0.00 0.00 87 1007.4
20260506100004 24 172 6.4 0.0 0.00 0.00 0.00 87 1007.5
20260506095503 24 125 6.4 0.0 0.00 0.00 0.00 87 1007.3
20260506095003 24 148 6.4 0.0 0.00 0.00 0.00 87 1007.2
20260506094504 24 131 6.4 0.0 0.00 0.00 0.00 86 1007.2
20260506094004 24 141 6.4 0.0 0.00 0.00 0.00 86 1007.3
20260506093504 24 137 6.4 0.0 0.00 0.00 0.00 86 1007.2
20260506092003 24 159 6.4 0.0 0.00 0.00 0.00 86 1007.2
20260506091004 24 160 9.7 0.0 0.00 0.00 0.00 86 1007.1
20260506090503 24 167 9.7 0.0 0.00 0.00 0.00 86 1007.1
20260506090003 24 144 8.0 0.0 0.00 0.00 0.00 86 1007.2
20260506085504 24 175 8.0 0.0 0.00 0.00 0.00 86 1007.2
20260506085004 24 156 8.0 0.0 0.00 0.00 0.00 86 1007.0
20260506084503 24 148 9.7 0.0 0.00 0.00 0.00 86 1007.0
20260506084004 24 171 12.9 0.0 0.00 0.00 0.00 86 1007.0
20260506083503 24 162 11.3 0.0 0.00 0.00 0.00 86 1007.0
20260506083003 24 168 12.9 0.0 0.00 0.00 0.00 86 1007.0
20260506082504 24 162 14.5 0.0 0.00 0.00 0.00 86 1007.0
20260506082004 24 159 12.9 0.0 0.00 0.00 0.00 86 1007.1
20260506081504 24 159 16.1 0.0 0.00 0.00 0.00 86 1007.1
20260506081004 23 161 17.7 0.0 0.00 0.00 0.00 86 1006.9
20260506080504 23 169 16.1 0.0 0.00 0.00 0.00 87 1006.9
20260506073003 23 161 16.1 0.0 0.00 0.00 0.00 87 1007.2
20260506072504 23 159 17.7 0.0 0.00 0.00 0.00 87 1007.1
20260506072004 23 157 19.3 0.0 0.00 0.00 0.00 87 1007.2
20260506071504 23 150 17.7 0.0 0.00 0.00 0.00 88 1007.2
20260506071003 23 153 17.7 0.0 0.00 0.00 0.00 88 1007.2
20260506070503 23 149 17.7 0.0 0.00 0.00 0.00 89 1007.2
20260506062503 23 144 17.7 0.0 0.00 0.00 0.00 88 1007.6
20260506062003 23 145 17.7 0.0 0.00 0.00 0.00 88 1007.6
20260506061503 23 145 17.7 0.0 0.00 0.00 0.00 88 1007.5
20260506061003 23 149 16.1 0.0 0.00 0.00 0.00 88 1007.7
20260506060504 23 147 14.5 0.0 0.00 0.00 0.00 87 1007.7
20260506050504 23 156 19.3 0.0 0.00 0.00 0.00 86 1007.4
20260506043503 24 140 17.7 0.0 0.00 0.00 0.00 84 1007.5
20260506042503 24 151 17.7 0.0 0.00 0.00 0.00 84 1007.3
20260506042004 24 150 19.3 0.0 0.00 0.00 0.00 83 1007.4
20260506040503 24 168 19.3 0.0 0.00 0.00 0.00 83 1007.3
20260506040003 25 153 17.7 0.0 0.00 0.00 0.00 82 1007.1
20260506035503 25 151 19.3 0.0 0.00 0.00 0.00 82 1007.0
20260506035004 25 144 22.5 0.0 0.00 0.00 0.00 82 1006.9
20260506034003 25 153 19.3 0.0 0.00 0.00 0.00 81 1006.9
20260506033503 25 148 19.3 0.0 0.00 0.00 0.00 81 1006.8
20260506033004 25 160 17.7 0.0 0.00 0.00 0.00 80 1006.6
20260506032003 25 153 19.3 0.0 0.00 0.00 0.00 80 1006.6
20260506031503 25 148 20.9 0.0 0.00 0.00 0.00 79 1006.4
20260506031003 25 145 19.3 0.0 0.00 0.00 0.00 79 1006.4
20260506030503 25 141 22.5 0.0 0.00 0.00 0.00 78 1006.4
20260506025503 25 158 20.9 0.0 0.00 0.00 0.00 77 1006.3
20260506025003 25 167 22.5 0.0 0.00 0.00 0.00 77 1006.1
20260506024503 25 170 20.9 0.0 0.00 0.00 0.00 77 1006.1
20260506024004 25 157 22.5 0.0 0.00 0.00 0.00 77 1006.1
20260506023503 25 162 22.5 0.0 0.00 0.00 0.00 77 1006.0
20260506023003 25 156 22.5 0.0 0.00 0.00 0.00 77 1006.0
20260506022503 25 164 22.5 0.0 0.00 0.00 0.00 76 1005.9
20260506022003 25 153 24.1 0.0 0.00 0.00 0.00 76 1005.9
20260506021503 25 152 22.5 0.0 0.00 0.00 0.00 76 1006.0
20260506021003 25 163 22.5 0.0 0.00 0.00 0.00 76 1006.0
20260506020503 25 156 17.7 0.0 0.00 0.00 0.00 77 1006.0
20260506020003 26 157 16.1 0.0 0.00 0.00 0.00 76 1006.1
20260506015503 26 155 17.7 0.0 0.00 0.00 0.00 76 1006.1
20260506015003 26 159 19.3 0.0 0.00 0.00 0.00 76 1005.9
20260506014504 26 154 19.3 0.0 0.00 0.00 0.00 76 1005.8
20260506014003 26 153 17.7 0.0 0.00 0.00 0.00 76 1005.8
20260506013504 26 176 16.1 0.0 0.00 0.00 0.00 77 1005.8
20260506013003 26 166 16.1 0.0 0.00 0.00 0.00 76 1005.6
20260506012003 26 159 17.7 0.0 0.00 0.00 0.00 75 1005.3
20260506011504 26 156 20.9 0.0 0.00 0.00 0.00 75 1005.2
20260506010003 26 153 17.7 0.0 0.00 0.00 0.00 74 1004.9
20260506005503 26 165 19.3 0.0 0.00 0.00 0.00 72 1004.8
20260506005003 26 161 24.1 0.0 0.00 0.00 0.00 72 1004.8
20260506004504 27 157 25.7 0.0 0.00 0.00 0.00 71 1004.7
20260506004002 27 161 25.7 0.0 0.00 0.00 0.00 71 1004.6
20260506003503 27 150 22.5 0.0 0.00 0.00 0.00 71 1004.6
20260506003003 27 160 22.5 0.0 0.00 0.00 0.00 70 1004.7
20260506002503 27 161 24.1 0.0 0.00 0.00 0.00 70 1004.8
20260506002003 27 170 22.5 0.0 0.00 0.00 0.00 69 1004.7
20260506001503 27 153 22.5 0.0 0.00 0.00 0.00 69 1004.8
20260506001003 27 162 27.4 0.0 0.00 0.00 0.00 68 1004.9
20260506000503 28 158 24.1 0.0 0.00 0.00 0.00 68 1004.8
20260506000003 28 163 20.9 0.0 0.00 0.00 0.00 68 1004.8
20260505235503 28 146 20.9 0.0 0.00 0.00 0.00 68 1004.7
20260505235003 28 166 27.4 0.0 0.00 0.00 0.00 67 1004.6
20260505234503 28 157 25.7 0.0 0.00 0.00 0.00 67 1004.7
20260505234003 28 160 24.1 0.0 0.00 0.00 0.00 67 1004.6
20260505233503 28 143 25.7 0.0 0.00 0.00 0.00 67 1004.6
20260505233003 28 153 25.7 0.0 0.00 0.00 0.00 67 1004.5
20260505232503 28 142 27.4 0.0 0.00 0.00 0.00 66 1004.5
20260505232003 28 143 29.0 0.0 0.00 0.00 0.00 66 1004.4
20260505231503 28 156 27.4 0.0 0.00 0.00 0.00 65 1004.3
20260505230503 28 150 29.0 0.0 0.00 0.00 0.00 65 1004.4
20260505230003 29 158 25.7 0.0 0.00 0.00 0.00 64 1004.4
20260505225503 29 183 25.7 0.0 0.00 0.00 0.00 62 1004.6
20260505224503 29 167 24.1 0.0 0.00 0.00 0.00 63 1004.7
20260505224003 29 158 25.7 0.0 0.00 0.00 0.00 61 1004.5
20260505223503 30 154 27.4 0.0 0.00 0.00 0.00 63 1004.5
20260505223003 30 145 24.1 0.0 0.00 0.00 0.00 62 1004.5
20260505222503 30 156 24.1 0.0 0.00 0.00 0.00 62 1004.5
20260505221003 30 188 19.3 0.0 0.00 0.00 0.00 60 1004.6
20260505220503 30 179 19.3 0.0 0.00 0.00 0.00 59 1004.7
20260505220003 30 171 22.5 0.0 0.00 0.00 0.00 60 1004.7
20260505215503 30 164 25.7 0.0 0.00 0.00 0.00 59 1004.7
20260505215003 30 165 25.7 0.0 0.00 0.00 0.00 59 1004.7
20260505214503 30 196 22.5 0.0 0.00 0.00 0.00 60 1004.7
20260505214003 30 202 22.5 0.0 0.00 0.00 0.00 61 1004.7
20260505213503 30 179 24.1 0.0 0.00 0.00 0.00 60 1004.8
20260505213003 30 176 20.9 0.0 0.00 0.00 0.00 61 1004.9
20260505212503 30 180 22.5 0.0 0.00 0.00 0.00 60 1004.9
20260505212003 31 164 24.1 0.0 0.00 0.00 0.00 58 1004.9
20260505211503 30 181 22.5 0.0 0.00 0.00 0.00 57 1005.1
20260505211003 30 185 25.7 0.0 0.00 0.00 0.00 60 1005.2
20260505210503 30 183 24.1 0.0 0.00 0.00 0.00 59 1005.2
20260505205503 30 175 24.1 0.0 0.00 0.00 0.00 60 1005.4
20260505205003 30 160 19.3 0.0 0.00 0.00 0.00 59 1005.5
20260505204503 30 183 20.9 0.0 0.00 0.00 0.00 58 1005.6
20260505204003 30 197 17.7 0.0 0.00 0.00 0.00 60 1005.6
20260505203003 30 184 22.5 0.0 0.00 0.00 0.00 60 1005.8
20260505202503 30 166 20.9 0.0 0.00 0.00 0.00 60 1005.8
20260505202003 29 177 22.5 0.0 0.00 0.00 0.00 63 1005.9
20260505201503 30 157 24.1 0.0 0.00 0.00 0.00 61 1006.0
20260505201003 30 200 24.1 0.0 0.00 0.00 0.00 59 1006.0
20260505200503 30 192 22.5 0.0 0.00 0.00 0.00 60 1006.1
20260505200003 29 199 19.3 0.0 0.00 0.00 0.00 62 1006.2
20260505195503 29 217 24.1 0.0 0.00 0.00 0.00 62 1006.3
20260505195003 29 207 24.1 0.0 0.00 0.00 0.00 62 1006.2
20260505194503 29 210 25.7 0.0 0.00 0.00 0.00 63 1006.3
20260505194003 29 187 19.3 0.0 0.00 0.00 0.00 63 1006.4
20260505193503 29 211 20.9 0.0 0.00 0.00 0.00 62 1006.5
20260505193003 28 179 27.4 0.0 0.00 0.00 0.00 62 1006.5
20260505192503 28 177 20.9 0.0 0.00 0.00 0.00 64 1006.7
20260505192003 28 170 24.1 0.0 0.00 0.00 0.00 63 1006.8
20260505191003 28 187 22.5 0.0 0.00 0.00 0.00 63 1006.8
20260505190503 28 189 25.7 0.0 0.00 0.00 0.00 63 1006.8
20260505185503 28 208 24.1 0.0 0.00 0.00 0.00 65 1006.8
20260505184503 28 184 20.9 0.0 0.00 0.00 0.00 64 1006.8
20260505184003 28 196 20.9 0.0 0.00 0.00 0.00 64 1006.8
20260505183503 28 200 27.4 0.0 0.00 0.00 0.00 64 1006.8
20260505183003 28 207 24.1 0.0 0.00 0.00 0.00 65 1006.8
20260505182503 28 177 27.4 0.0 0.00 0.00 0.00 64 1006.8
20260505182003 28 195 24.1 0.0 0.00 0.00 0.00 66 1006.9
20260505181503 28 210 24.1 0.0 0.00 0.00 0.00 65 1006.9
20260505181003 28 198 27.4 0.0 0.00 0.00 0.00 65 1007.1
20260505180503 28 211 29.0 0.0 0.00 0.00 0.00 66 1007.1
20260505180003 27 199 20.9 0.0 0.00 0.00 0.00 68 1007.2
20260505175503 27 186 24.1 0.0 0.00 0.00 0.00 68 1007.2
20260505174503 27 201 20.9 0.0 0.00 0.00 0.00 69 1007.3
20260505174003 27 196 27.4 0.0 0.00 0.00 0.00 69 1007.4
20260505173503 27 173 25.7 0.0 0.00 0.00 0.00 68 1007.5
20260505173003 27 180 20.9 0.0 0.00 0.00 0.00 68 1007.5
20260505172503 27 178 22.5 0.0 0.00 0.00 0.00 69 1007.5
20260505172003 27 180 24.1 0.0 0.00 0.00 0.00 70 1007.5
20260505171003 27 195 20.9 0.0 0.00 0.00 0.00 72 1007.7
20260505170503 27 222 22.5 0.0 0.00 0.00 0.00 70 1007.6
20260505170003 27 182 24.1 0.0 0.00 0.00 0.00 71 1007.6
20260505165503 26 223 22.5 0.0 0.00 0.00 0.00 73 1007.6
20260505165003 26 177 25.7 0.0 0.00 0.00 0.00 72 1007.6
20260505164503 26 190 29.0 0.0 0.00 0.00 0.00 73 1007.8
20260505164003 26 173 24.1 0.0 0.00 0.00 0.00 73 1007.8
20260505163003 26 185 24.1 0.0 0.00 0.00 0.00 74 1007.8
20260505162503 26 195 24.1 0.0 0.00 0.00 0.00 75 1007.8
20260505162003 25 184 20.9 0.0 0.00 0.00 0.00 76 1007.9